Station Historical Data
Daily Summary for May 2, 2017 Units:  Metric    English   Both
« Previous Day
Next Day »
Daily Weekly Monthly Yearly Custom
  High: Low: Average:
Temperature: 11.8 °C 7.7 °C 9.1 °C
Dew Point: 8.1 °C 4.3 °C 5.8 °C
Humidity: 87% 72% 80%
Wind Speed: 38.6km/h 0km/h 13.7km/h
Wind Gust: 48.3km/h - -
Wind- - SW
Pressure: 1008 hPa 999.9 hPa -
Precipitation: 1.27 mm    
Historical Graphs
 
 
Tabular Data for May 2, 2017
Time Temperature Dew Point Pressure Wind Wind Speed Wind Gust Humidity Rainfall Rate (Hourly)
00:00 10.7 °C 7.9 °C 1001.2 hPa SSW 6.4 km/h 29 km/h 83% 0 mm
00:05 10.7 °C 7.9 °C 1000.9 hPa SW 14.5 km/h 29 km/h 83% 0 mm
00:10 10.6 °C 7.8 °C 1001.2 hPa SW 14.5 km/h 29 km/h 83% 0 mm
00:15 10.7 °C 7.8 °C 1001.2 hPa WSW 14.5 km/h 32.2 km/h 82% 0 mm
00:20 10.8 °C 7.9 °C 1001.2 hPa WSW 16.1 km/h 32.2 km/h 82% 0 mm
00:25 10.8 °C 7.9 °C 1001.2 hPa SW 16.1 km/h 32.2 km/h 82% 0 mm
00:30 10.8 °C 7.8 °C 1001.6 hPa SW 25.7 km/h 33.8 km/h 82% 0 mm
00:35 10.6 °C 7.8 °C 1001.6 hPa WSW 16.1 km/h 27.4 km/h 83% 0 mm
00:40 10.4 °C 7.7 °C 1001.6 hPa SW 12.9 km/h 30.6 km/h 83% 0 mm
00:45 10.4 °C 7.6 °C 1001.2 hPa WSW 9.7 km/h 24.1 km/h 83% 0 mm
00:50 10.3 °C 7.5 °C 1001.2 hPa West 11.3 km/h 17.7 km/h 83% 0 mm
00:55 10.3 °C 7.5 °C 1001.2 hPa WSW 11.3 km/h 19.3 km/h 83% 0 mm
01:00 10.2 °C 7.4 °C 1001.6 hPa SSW 14.5 km/h 20.9 km/h 83% 0 mm
01:05 10 °C 7.2 °C 1001.6 hPa SW 9.7 km/h 25.7 km/h 83% 0 mm
01:10 9.8 °C 7 °C 1001.6 hPa SW 9.7 km/h 25.7 km/h 83% 0 mm
01:15 9.6 °C 6.9 °C 1001.9 hPa SW 9.7 km/h 24.1 km/h 83% 0 mm
01:20 9.5 °C 6.9 °C 1001.6 hPa SW 9.7 km/h 24.1 km/h 84% 0 mm
01:25 9.5 °C 6.9 °C 1001.9 hPa WSW 12.9 km/h 24.1 km/h 84% 0 mm
01:30 9.5 °C 6.9 °C 1001.9 hPa SW 11.3 km/h 20.9 km/h 84% 0 mm
01:35 9.6 °C 7 °C 1001.9 hPa SW 11.3 km/h 24.1 km/h 84% 0 mm
01:40 9.6 °C 7 °C 1001.9 hPa WSW 8 km/h 20.9 km/h 84% 0 mm
01:45 9.6 °C 6.8 °C 1001.9 hPa SSW 11.3 km/h 20.9 km/h 83% 0 mm
01:50 9.5 °C 6.8 °C 1001.9 hPa SW 6.4 km/h 25.7 km/h 83% 0 mm
01:55 9.4 °C 6.7 °C 1001.9 hPa ENE 3.2 km/h 16.1 km/h 83% 0 mm
02:00 9.4 °C 6.7 °C 1001.6 hPa SW 11.3 km/h 22.5 km/h 83% 0 mm
02:05 9.4 °C 6.5 °C 1001.9 hPa SW 11.3 km/h 22.5 km/h 82% 0 mm
02:10 9.4 °C 6.5 °C 1001.6 hPa SW 9.7 km/h 20.9 km/h 82% 0 mm
02:15 9.4 °C 6.5 °C 1001.6 hPa SW 9.7 km/h 20.9 km/h 82% 0 mm
02:20 9.4 °C 6.4 °C 1001.6 hPa SW 6.4 km/h 20.9 km/h 82% 0 mm
02:25 9.3 °C 6.4 °C 1001.6 hPa WSW 8 km/h 17.7 km/h 82% 0 mm
02:30 9.3 °C 6.4 °C 1001.6 hPa West 6.4 km/h 17.7 km/h 82% 0 mm
02:35 9.1 °C 6.2 °C 1001.6 hPa WSW 8 km/h 17.7 km/h 82% 0 mm
02:40 9.1 °C 6.3 °C 1001.6 hPa SW 9.7 km/h 19.3 km/h 83% 0 mm
02:45 9 °C 6.3 °C 1001.6 hPa SW 9.7 km/h 19.3 km/h 83% 0 mm
02:50 8.9 °C 6.4 °C 1001.6 hPa West 3.2 km/h 12.9 km/h 84% 0 mm
02:55 8.9 °C 6.3 °C 1001.6 hPa SW 9.7 km/h 16.1 km/h 84% 0 mm
03:00 8.9 °C 6.4 °C 1001.6 hPa SSW 6.4 km/h 12.9 km/h 84% 0 mm
03:05 8.9 °C 6.4 °C 1001.6 hPa SW 6.4 km/h 14.5 km/h 84% 0 mm
03:10 8.9 °C 6.3 °C 1001.6 hPa SW 6.4 km/h 14.5 km/h 84% 0 mm
03:15 8.9 °C 6.4 °C 1001.6 hPa WSW 6.4 km/h 17.7 km/h 84% 0 mm
03:20 9 °C 6.4 °C 1001.6 hPa SW 11.3 km/h 17.7 km/h 84% 0 mm
03:25 9 °C 6.3 °C 1001.6 hPa SW 11.3 km/h 17.7 km/h 83% 0 mm
03:30 9 °C 6.4 °C 1001.6 hPa WSW 8 km/h 12.9 km/h 84% 0 mm
03:35 8.9 °C 6.4 °C 1001.6 hPa SW 4.8 km/h 14.5 km/h 84% 0 mm
03:40 8.9 °C 6.4 °C 1001.6 hPa SW 8 km/h 16.1 km/h 84% 0 mm
03:45 8.9 °C 6.4 °C 1001.6 hPa SW 8 km/h 16.1 km/h 84% 0 mm
03:50 9 °C 6.4 °C 1001.6 hPa SW 4.8 km/h 14.5 km/h 84% 0 mm
03:55 9 °C 6.3 °C 1001.6 hPa SSW 3.2 km/h 22.5 km/h 83% 0 mm
04:00 9.1 °C 6.3 °C 1001.6 hPa WSW 4.8 km/h 11.3 km/h 83% 0 mm
04:05 9.1 °C 6.3 °C 1001.6 hPa SW 6.4 km/h 20.9 km/h 83% 0 mm
04:10 9.1 °C 6.3 °C 1001.6 hPa SW 8 km/h 20.9 km/h 83% 0 mm
04:15 9.1 °C 6.3 °C 1001.6 hPa SW 8 km/h 17.7 km/h 83% 0 mm
04:20 9 °C 6.3 °C 1001.6 hPa SW 8 km/h 17.7 km/h 83% 0 mm
04:25 9 °C 6.3 °C 1001.6 hPa SW 8 km/h 17.7 km/h 83% 0 mm
04:30 9.1 °C 6.3 °C 1001.6 hPa SW 8 km/h 16.1 km/h 83% 0 mm
04:35 9.1 °C 6.4 °C 1001.6 hPa SW 8 km/h 17.7 km/h 83% 0 mm
04:40 9.1 °C 6.2 °C 1001.6 hPa SSW 9.7 km/h 22.5 km/h 82% 0 mm
04:45 9.1 °C 6.2 °C 1001.6 hPa SW 11.3 km/h 19.3 km/h 82% 0 mm
04:50 9.1 °C 6.3 °C 1001.6 hPa SW 8 km/h 19.3 km/h 83% 0 mm
04:55 9.1 °C 6.2 °C 1001.6 hPa SW 6.4 km/h 19.3 km/h 82% 0 mm
05:00 9.1 °C 6.2 °C 1001.6 hPa SW 9.7 km/h 14.5 km/h 82% 0 mm
05:05 9.2 °C 6.3 °C 1001.6 hPa SW 8 km/h 16.1 km/h 82% 0 mm
05:10 9.2 °C 6.3 °C 1001.6 hPa SW 8 km/h 16.1 km/h 82% 0 mm
05:15 9.2 °C 6.3 °C 1001.6 hPa SW 8 km/h 16.1 km/h 82% 0 mm
05:20 9.3 °C 6.4 °C 1001.6 hPa SW 8 km/h 17.7 km/h 82% 0 mm
05:25 9.4 °C 6.3 °C 1001.6 hPa SW 8 km/h 22.5 km/h 81% 0 mm
05:30 9.6 °C 6.3 °C 1001.6 hPa SW 8 km/h 22.5 km/h 80% 0 mm
05:35 9.6 °C 6.3 °C 1001.6 hPa SW 8 km/h 24.1 km/h 80% 0 mm
05:40 9.7 °C 6.2 °C 1001.6 hPa WSW 9.7 km/h 17.7 km/h 79% 0 mm
05:45 9.7 °C 6.3 °C 1001.6 hPa SW 12.9 km/h 19.3 km/h 79% 0 mm
05:50 9.7 °C 6.3 °C 1001.6 hPa WSW 9.7 km/h 19.3 km/h 79% 0 mm
05:55 9.7 °C 6.2 °C 1001.6 hPa SSW 4.8 km/h 16.1 km/h 79% 0 mm
06:00 9.6 °C 6.2 °C 1001.6 hPa West 11.3 km/h 12.9 km/h 79% 0 mm
06:05 9.6 °C 6.1 °C 1001.2 hPa WSW 6.4 km/h 16.1 km/h 79% 0 mm
06:10 9.5 °C 6.2 °C 1001.2 hPa WSW 6.4 km/h 16.1 km/h 80% 0 mm
06:15 9.4 °C 6.2 °C 1001.2 hPa WSW 6.4 km/h 14.5 km/h 80% 0 mm
06:20 9.4 °C 6.3 °C 1001.2 hPa WSW 6.4 km/h 11.3 km/h 81% 0 mm
06:25 9.4 °C 6.3 °C 1001.6 hPa WSW 4.8 km/h 11.3 km/h 81% 0 mm
06:30 9.4 °C 6.3 °C 1001.6 hPa WSW 4.8 km/h 8 km/h 81% 0 mm
06:35 9.4 °C 6.4 °C 1001.6 hPa Calm   8 km/h 82% 0 mm
06:40 9.5 °C 6.6 °C 1001.2 hPa WSW 3.2 km/h 17.7 km/h 82% 0 mm
06:45 9.7 °C 6.7 °C 1001.2 hPa SW 6.4 km/h 17.7 km/h 82% 0 mm
06:50 9.9 °C 6.3 °C 1001.2 hPa SW 8 km/h 29 km/h 78% 0 mm
06:55 10.3 °C 6.1 °C 1000.9 hPa SW 9.7 km/h 29 km/h 75% 0 mm
07:00 10.6 °C 5.9 °C 1000.9 hPa SW 8 km/h 16.1 km/h 73% 0 mm
07:05 10.7 °C 5.8 °C 1000.9 hPa WSW 4.8 km/h 17.7 km/h 72% 0 mm
07:10 10.7 °C 6 °C 1000.9 hPa SW 6.4 km/h 17.7 km/h 73% 0 mm
07:15 10.7 °C 6.1 °C 1000.9 hPa SW 6.4 km/h 14.5 km/h 73% 0 mm
07:20 10.8 °C 6.1 °C 1000.9 hPa SW 9.7 km/h 14.5 km/h 73% 0 mm
07:25 10.8 °C 6.2 °C 1000.9 hPa SSW 3.2 km/h 12.9 km/h 73% 0 mm
07:30 10.9 °C 6.3 °C 1000.9 hPa West 12.9 km/h 16.1 km/h 73% 0 mm
07:35 11 °C 6.3 °C 1000.9 hPa SSW 4.8 km/h 12.9 km/h 73% 0 mm
07:40 10.9 °C 6.5 °C 1000.9 hPa West 8 km/h 12.9 km/h 74% 0 mm
07:45 10.9 °C 6.5 °C 1000.9 hPa SW 8 km/h 12.9 km/h 74% 0 mm
07:50 10.9 °C 6.5 °C 1000.9 hPa SW 6.4 km/h 11.3 km/h 74% 0 mm
07:55 11 °C 6.6 °C 1000.9 hPa SW 4.8 km/h 11.3 km/h 74% 0 mm
08:00 11 °C 6.6 °C 1000.9 hPa SW 4.8 km/h 8 km/h 74% 0 mm
08:05 11.1 °C 6.4 °C 1000.9 hPa SW 6.4 km/h 14.5 km/h 73% 0 mm
08:10 11.1 °C 6.6 °C 1000.9 hPa SW 6.4 km/h 14.5 km/h 74% 0 mm
08:15 11.1 °C 6.8 °C 1000.9 hPa SW 3.2 km/h 8 km/h 75% 0 mm
08:20 11.1 °C 6.7 °C 1000.9 hPa SSW 1.6 km/h 9.7 km/h 74% 0 mm
08:25 11.1 °C 6.7 °C 1000.9 hPa SW 8 km/h 14.5 km/h 74% 0 mm
08:30 11.2 °C 6.5 °C 1000.9 hPa South 9.7 km/h 14.5 km/h 73% 0 mm
08:35 11.2 °C 6.3 °C 1000.9 hPa SW 8 km/h 19.3 km/h 72% 0 mm
08:40 11.2 °C 6.3 °C 1000.9 hPa SSW 3.2 km/h 14.5 km/h 72% 0 mm
08:45 11.1 °C 6.3 °C 1000.9 hPa SSW 6.4 km/h 17.7 km/h 72% 0 mm
08:50 11.1 °C 6.3 °C 1000.6 hPa SSW 6.4 km/h 17.7 km/h 72% 0 mm
08:55 11.2 °C 6.3 °C 1000.9 hPa SSW 6.4 km/h 14.5 km/h 72% 0 mm
09:00 11.2 °C 6.3 °C 1000.9 hPa SSW 6.4 km/h 19.3 km/h 72% 0 mm
09:05 11.2 °C 6.3 °C 1000.9 hPa SSW 8 km/h 19.3 km/h 72% 0 mm
09:10 11.1 °C 6.4 °C 1000.9 hPa SSW 4.8 km/h 19.3 km/h 73% 0 mm
09:15 11 °C 6.6 °C 1000.9 hPa SSW 11.3 km/h 24.1 km/h 74% 0 mm
09:20 10.8 °C 6.5 °C 1000.9 hPa SSW 4.8 km/h 22.5 km/h 75% 0 mm
09:25 10.8 °C 6.5 °C 1000.9 hPa SW 8 km/h 24.1 km/h 75% 0 mm
09:30 10.8 °C 6.7 °C 1000.9 hPa South 8 km/h 24.1 km/h 76% 0 mm
09:35 10.6 °C 6.9 °C 1000.9 hPa South 11.3 km/h 17.7 km/h 78% 0 mm
09:40 10.5 °C 7.2 °C 1000.6 hPa SSW 6.4 km/h 19.3 km/h 80% 0 mm
09:45 10.5 °C 7.2 °C 1000.6 hPa SSW 8 km/h 19.3 km/h 80% 0 mm
09:50 10.7 °C 7.6 °C 1000.6 hPa SSW 8 km/h 16.1 km/h 81% 0 mm
09:55 10.7 °C 7.6 °C 1000.6 hPa SSW 8 km/h 14.5 km/h 81% 0 mm
10:00 10.8 °C 7.8 °C 1000.6 hPa SSE 8 km/h 22.5 km/h 82% 0 mm
10:05 10.8 °C 7.7 °C 1000.6 hPa SW 9.7 km/h 19.3 km/h 81% 0 mm
10:10 10.9 °C 7.6 °C 1000.2 hPa SW 11.3 km/h 22.5 km/h 80% 0 mm
10:15 11.3 °C 7.9 °C 1000.2 hPa SSW 8 km/h 22.5 km/h 80% 0 mm
10:20 11.6 °C 8.1 °C 1000.2 hPa SSW 8 km/h 17.7 km/h 79% 0 mm
10:25 11.6 °C 7.4 °C 1000.2 hPa SSW 9.7 km/h 22.5 km/h 76% 0 mm
10:30 11.7 °C 7.6 °C 1000.2 hPa SW 9.7 km/h 22.5 km/h 76% 0 mm
10:35 11.7 °C 7.2 °C 1000.2 hPa SW 9.7 km/h 25.7 km/h 74% 0 mm
10:40 11.8 °C 7.5 °C 999.9 hPa SSE 14.5 km/h 25.7 km/h 75% 0 mm
10:45 11.8 °C 7.3 °C 999.9 hPa SSW 11.3 km/h 25.7 km/h 74% 0 mm
10:50 11.8 °C 6.9 °C 999.9 hPa SSW 11.3 km/h 27.4 km/h 72% 0 mm
10:55 11.8 °C 6.9 °C 999.9 hPa South 12.9 km/h 25.7 km/h 72% 0 mm
11:00 10.9 °C 6.1 °C 1000.9 hPa West 30.6 km/h 40.2 km/h 72% 0.25 mm
11:05 8.8 °C 5.6 °C 1000.9 hPa WNW 8 km/h 45.1 km/h 80% 0.25 mm
11:10 8.2 °C 5.7 °C 1000.9 hPa WSW 22.5 km/h 33.8 km/h 84% 0.25 mm
11:15 8 °C 5.6 °C 1000.9 hPa WSW 14.5 km/h 33.8 km/h 85% 0.51 mm
11:20 7.9 °C 5.7 °C 1000.9 hPa WSW 16.1 km/h 27.4 km/h 86% 0.51 mm
11:25 7.9 °C 5.7 °C 1000.9 hPa WSW 16.1 km/h 29 km/h 86% 0.76 mm
11:30 7.8 °C 5.8 °C 1000.9 hPa WSW 16.1 km/h 30.6 km/h 87% 0.76 mm
11:35 7.9 °C 5.9 °C 1001.2 hPa WSW 14.5 km/h 30.6 km/h 87% 1.02 mm
11:40 7.9 °C 5.8 °C 1000.9 hPa SSW 11.3 km/h 46.7 km/h 87% 1.02 mm
11:45 7.9 °C 5.9 °C 1000.9 hPa WSW 12.9 km/h 46.7 km/h 87% 1.02 mm
11:50 8.2 °C 6.1 °C 1000.9 hPa WSW 8 km/h 22.5 km/h 87% 1.02 mm
11:55 8.4 °C 6.2 °C 1000.9 hPa WSW 16.1 km/h 17.7 km/h 86% 1.02 mm
12:00 8.4 °C 6.2 °C 1000.9 hPa WSW 9.7 km/h 32.2 km/h 86% 0.76 mm
12:05 8.5 °C 6.3 °C 1000.9 hPa WSW 14.5 km/h 25.7 km/h 86% 0.76 mm
12:10 8.6 °C 6.2 °C 1000.9 hPa WSW 11.3 km/h 24.1 km/h 85% 0.76 mm
12:15 8.6 °C 6.1 °C 1000.9 hPa WSW 14.5 km/h 32.2 km/h 84% 0.51 mm
12:20 8.6 °C 6.1 °C 1001.2 hPa WSW 16.1 km/h 33.8 km/h 84% 0.51 mm
12:25 8.6 °C 5.8 °C 1000.9 hPa WSW 16.1 km/h 33.8 km/h 83% 0.25 mm
12:30 8.5 °C 5.6 °C 1001.2 hPa WSW 19.3 km/h 35.4 km/h 82% 0.25 mm
12:35 8.4 °C 5.7 °C 1001.2 hPa SW 12.9 km/h 32.2 km/h 83% 0 mm
12:40 8.2 °C 5.5 °C 1001.2 hPa WSW 29 km/h 35.4 km/h 83% 0 mm
12:45 8.3 °C 5.6 °C 1001.2 hPa SW 11.3 km/h 37 km/h 83% 0 mm
12:50 8.4 °C 5.9 °C 1001.2 hPa WSW 14.5 km/h 37 km/h 84% 0 mm
12:55 8.6 °C 6.1 °C 1001.2 hPa WSW 12.9 km/h 33.8 km/h 84% 0 mm
13:00 8.3 °C 5.6 °C 1001.2 hPa West 19.3 km/h 33.8 km/h 83% 0 mm
13:05 8.3 °C 5.9 °C 1001.2 hPa WSW 11.3 km/h 27.4 km/h 85% 0 mm
13:10 8.3 °C 5.9 °C 1001.2 hPa WSW 16.1 km/h 27.4 km/h 85% 0 mm
13:15 8.2 °C 5.8 °C 1001.6 hPa SW 14.5 km/h 32.2 km/h 85% 0 mm
13:20 7.9 °C 5.6 °C 1001.6 hPa SW 16.1 km/h 32.2 km/h 85% 0.25 mm
13:25 7.9 °C 5.5 °C 1001.6 hPa WSW 16.1 km/h 37 km/h 85% 0.25 mm
13:30 7.9 °C 5.5 °C 1001.6 hPa SW 19.3 km/h 38.6 km/h 85% 0.25 mm
13:35 7.9 °C 5.7 °C 1001.6 hPa SSW 24.1 km/h 29 km/h 86% 0.25 mm
13:40 7.9 °C 5.5 °C 1001.6 hPa West 22.5 km/h 37 km/h 85% 0.25 mm
13:45 7.9 °C 5.6 °C 1001.6 hPa WSW 19.3 km/h 37 km/h 85% 0.25 mm
13:50 7.9 °C 5.3 °C 1001.6 hPa SW 19.3 km/h 37 km/h 84% 0.25 mm
13:55 7.9 °C 5.2 °C 1001.9 hPa SW 19.3 km/h 38.6 km/h 83% 0.25 mm
14:00 8.1 °C 5.5 °C 1001.9 hPa SW 19.3 km/h 43.5 km/h 84% 0.25 mm
14:05 8.1 °C 5.3 °C 1001.6 hPa West 14.5 km/h 38.6 km/h 83% 0.25 mm
14:10 8.3 °C 5.6 °C 1001.9 hPa SW 22.5 km/h 38.6 km/h 83% 0.25 mm
14:15 8.4 °C 5.7 °C 1001.9 hPa WSW 11.3 km/h 37 km/h 83% 0.25 mm
14:20 8.5 °C 5.6 °C 1001.9 hPa SW 20.9 km/h 38.6 km/h 82% 0 mm
14:25 8.3 °C 5.3 °C 1002.3 hPa WSW 20.9 km/h 45.1 km/h 81% 0 mm
14:30 8.2 °C 5.2 °C 1002.3 hPa SW 16.1 km/h 40.2 km/h 81% 0 mm
14:35 8.3 °C 5.3 °C 1002.3 hPa South 9.7 km/h 32.2 km/h 81% 0 mm
14:40 8.5 °C 5.4 °C 1002.3 hPa West 11.3 km/h 30.6 km/h 81% 0 mm
14:45 8.5 °C 5.2 °C 1002.3 hPa WSW 22.5 km/h 35.4 km/h 80% 0 mm
14:50 8.6 °C 5.3 °C 1002.3 hPa SW 16.1 km/h 37 km/h 80% 0 mm
14:55 8.7 °C 5.3 °C 1002.3 hPa SW 17.7 km/h 41.8 km/h 79% 0 mm
15:00 8.8 °C 5.2 °C 1002.3 hPa WSW 19.3 km/h 33.8 km/h 78% 0 mm
15:05 9.2 °C 5.4 °C 1002.3 hPa SSW 29 km/h 35.4 km/h 77% 0 mm
15:10 9.1 °C 5.1 °C 1002.3 hPa SW 24.1 km/h 45.1 km/h 76% 0 mm
15:15 9.2 °C 5.2 °C 1002.6 hPa NW 14.5 km/h 35.4 km/h 76% 0 mm
15:20 8.9 °C 5.1 °C 1002.6 hPa WSW 17.7 km/h 35.4 km/h 77% 0 mm
15:25 8.7 °C 4.9 °C 1002.6 hPa WSW 17.7 km/h 35.4 km/h 77% 0 mm
15:30 8.7 °C 4.9 °C 1002.6 hPa WSW 19.3 km/h 40.2 km/h 77% 0 mm
15:35 9.2 °C 5.6 °C 1002.6 hPa NW 11.3 km/h 32.2 km/h 78% 0 mm
15:40 9.3 °C 5.3 °C 1002.6 hPa West 14.5 km/h 45.1 km/h 76% 0 mm
15:45 9.2 °C 5.2 °C 1002.9 hPa West 38.6 km/h 45.1 km/h 76% 0 mm
15:50 9.2 °C 5.2 °C 1002.6 hPa WSW 20.9 km/h 45.1 km/h 76% 0 mm
15:55 9 °C 5.2 °C 1002.6 hPa WSW 19.3 km/h 40.2 km/h 77% 0 mm
16:00 9.2 °C 5.2 °C 1002.9 hPa SW 20.9 km/h 40.2 km/h 76% 0 mm
16:05 9.1 °C 5.1 °C 1002.9 hPa SW 20.9 km/h 40.2 km/h 76% 0 mm
16:10 9.2 °C 5.4 °C 1002.9 hPa SW 20.9 km/h 40.2 km/h 77% 0 mm
16:15 9.3 °C 5.1 °C 1003.3 hPa SW 12.9 km/h 40.2 km/h 75% 0 mm
16:20 9.3 °C 5.1 °C 1003.3 hPa West 37 km/h 41.8 km/h 75% 0 mm
16:25 8.8 °C 4.7 °C 1003.3 hPa WSW 14.5 km/h 48.3 km/h 75% 0 mm
16:30 8.7 °C 4.7 °C 1003.3 hPa West 33.8 km/h 35.4 km/h 76% 0 mm
16:35 8.6 °C 4.8 °C 1003.3 hPa WSW 14.5 km/h 33.8 km/h 77% 0 mm
16:40 8.4 °C 4.7 °C 1003.3 hPa SW 20.9 km/h 48.3 km/h 77% 0 mm
16:45 8.4 °C 4.6 °C 1003.6 hPa SW 30.6 km/h 43.5 km/h 77% 0 mm
16:50 8.4 °C 4.8 °C 1003.6 hPa WSW 19.3 km/h 43.5 km/h 78% 0 mm
16:55 8.3 °C 4.7 °C 1003.6 hPa WSW 20.9 km/h 43.5 km/h 78% 0 mm
17:00 8.3 °C 4.7 °C 1003.6 hPa WSW 20.9 km/h 45.1 km/h 78% 0 mm
17:05 8.4 °C 4.8 °C 1003.9 hPa WSW 20.9 km/h 45.1 km/h 78% 0 mm
17:10 8.3 °C 4.7 °C 1003.6 hPa WSW 19.3 km/h 40.2 km/h 78% 0 mm
17:15 8.3 °C 4.7 °C 1003.9 hPa SSW 32.2 km/h 38.6 km/h 78% 0 mm
17:20 8.3 °C 4.7 °C 1003.9 hPa SW 20.9 km/h 45.1 km/h 78% 0 mm
17:25 8.2 °C 4.6 °C 1003.9 hPa SW 14.5 km/h 48.3 km/h 78% 0 mm
17:30 8.2 °C 4.6 °C 1003.9 hPa West 17.7 km/h 37 km/h 78% 0 mm
17:35 8.2 °C 4.6 °C 1004.3 hPa SW 17.7 km/h 40.2 km/h 78% 0 mm
17:40 8.2 °C 4.6 °C 1004.3 hPa West 22.5 km/h 37 km/h 78% 0 mm
17:45 8.2 °C 4.6 °C 1004.3 hPa WSW 20.9 km/h 37 km/h 78% 0 mm
17:50 8.2 °C 4.6 °C 1004.3 hPa WSW 20.9 km/h 41.8 km/h 78% 0 mm
17:55 8.2 °C 4.6 °C 1004.6 hPa WSW 22.5 km/h 41.8 km/h 78% 0 mm
18:00 8.2 °C 4.8 °C 1004.6 hPa WSW 20.9 km/h 40.2 km/h 79% 0 mm
18:05 8.2 °C 4.8 °C 1004.6 hPa WSW 17.7 km/h 38.6 km/h 79% 0 mm
18:10 8.3 °C 4.7 °C 1004.6 hPa SW 29 km/h 35.4 km/h 78% 0 mm
18:15 8.3 °C 4.8 °C 1004.6 hPa WSW 17.7 km/h 43.5 km/h 79% 0 mm
18:20 8.3 °C 4.7 °C 1004.6 hPa WSW 19.3 km/h 43.5 km/h 78% 0 mm
18:25 8.3 °C 4.7 °C 1005 hPa WSW 20.9 km/h 43.5 km/h 78% 0 mm
18:30 8.3 °C 4.9 °C 1005 hPa WSW 20.9 km/h 43.5 km/h 79% 0 mm
18:35 8.3 °C 4.7 °C 1005 hPa South 11.3 km/h 45.1 km/h 78% 0 mm
18:40 8.3 °C 4.9 °C 1005 hPa SE 17.7 km/h 40.2 km/h 79% 0 mm
18:45 8.3 °C 4.7 °C 1005 hPa SE 17.7 km/h 45.1 km/h 78% 0 mm
18:50 8.3 °C 4.7 °C 1005 hPa WSW 24.1 km/h 45.1 km/h 78% 0 mm
18:55 8.3 °C 4.7 °C 1005 hPa WSW 20.9 km/h 38.6 km/h 78% 0 mm
19:00 8.3 °C 4.7 °C 1005 hPa WSW 19.3 km/h 37 km/h 78% 0 mm
19:05 8.3 °C 4.8 °C 1005.3 hPa WNW 12.9 km/h 43.5 km/h 79% 0 mm
19:10 8.2 °C 4.6 °C 1005.3 hPa SW 14.5 km/h 37 km/h 78% 0 mm
19:15 8.2 °C 4.6 °C 1005.3 hPa SW 30.6 km/h 40.2 km/h 78% 0 mm
19:20 8.2 °C 4.6 °C 1005.3 hPa WSW 19.3 km/h 40.2 km/h 78% 0 mm
19:25 8.2 °C 4.6 °C 1005.3 hPa WSW 19.3 km/h 35.4 km/h 78% 0 mm
19:30 8.2 °C 4.6 °C 1005.6 hPa WSW 17.7 km/h 35.4 km/h 78% 0 mm
19:35 8.2 °C 4.6 °C 1005.6 hPa WSW 17.7 km/h 37 km/h 78% 0 mm
19:40 8.1 °C 4.5 °C 1005.3 hPa WSW 19.3 km/h 37 km/h 78% 0 mm
19:45 8.2 °C 4.4 °C 1005.6 hPa SSW 14.5 km/h 45.1 km/h 77% 0 mm
19:50 8.1 °C 4.3 °C 1005.6 hPa SW 22.5 km/h 37 km/h 77% 0 mm
19:55 8.2 °C 4.6 °C 1005.6 hPa WSW 17.7 km/h 38.6 km/h 78% 0 mm
20:00 8.1 °C 4.5 °C 1005.6 hPa WSW 12.9 km/h 40.2 km/h 78% 0 mm
20:05 8.1 °C 4.4 °C 1006 hPa WSW 17.7 km/h 37 km/h 78% 0 mm
20:10 8.1 °C 4.4 °C 1006 hPa SW 19.3 km/h 35.4 km/h 78% 0 mm
20:15 8.1 °C 4.6 °C 1006 hPa SSE 12.9 km/h 27.4 km/h 79% 0 mm
20:20 8.1 °C 4.6 °C 1006 hPa WSW 17.7 km/h 40.2 km/h 79% 0 mm
20:25 8 °C 4.6 °C 1006 hPa WSW 19.3 km/h 40.2 km/h 79% 0 mm
20:30 7.9 °C 4.7 °C 1006.3 hPa WSW 16.1 km/h 32.2 km/h 80% 0 mm
20:35 7.9 °C 4.7 °C 1006.3 hPa West 19.3 km/h 25.7 km/h 80% 0 mm
20:40 7.9 °C 4.7 °C 1006.3 hPa West 11.3 km/h 30.6 km/h 80% 0 mm
20:45 7.8 °C 4.6 °C 1006.3 hPa WNW 9.7 km/h 32.2 km/h 80% 0 mm
20:50 7.8 °C 4.7 °C 1006.7 hPa WSW 24.1 km/h 35.4 km/h 81% 0 mm
20:55 7.8 °C 4.7 °C 1006.7 hPa WSW 16.1 km/h 35.4 km/h 81% 0 mm
21:00 7.7 °C 4.7 °C 1006.7 hPa WSW 16.1 km/h 33.8 km/h 81% 0 mm
21:05 7.7 °C 4.7 °C 1006.7 hPa WSW 16.1 km/h 35.4 km/h 81% 0 mm
21:10 7.8 °C 4.7 °C 1006.7 hPa WSW 17.7 km/h 35.4 km/h 81% 0 mm
21:15 7.8 °C 4.7 °C 1007 hPa SSW 17.7 km/h 35.4 km/h 81% 0 mm
21:20 7.8 °C 4.7 °C 1007 hPa WSW 25.7 km/h 29 km/h 81% 0 mm
21:25 7.8 °C 4.7 °C 1007 hPa WSW 14.5 km/h 37 km/h 81% 0 mm
21:30 7.8 °C 4.7 °C 1007 hPa WSW 14.5 km/h 37 km/h 81% 0 mm
21:35 7.7 °C 4.7 °C 1007 hPa WSW 20.9 km/h 29 km/h 81% 0 mm
21:40 7.8 °C 4.7 °C 1007 hPa West 14.5 km/h 41.8 km/h 81% 0 mm
21:45 7.8 °C 4.6 °C 1007 hPa West 14.5 km/h 37 km/h 80% 0 mm
21:50 7.8 °C 4.6 °C 1007.3 hPa WSW 30.6 km/h 30.6 km/h 80% 0 mm
21:55 7.8 °C 4.6 °C 1007.3 hPa WSW 14.5 km/h 30.6 km/h 80% 0 mm
22:00 7.8 °C 4.6 °C 1007.3 hPa WSW 16.1 km/h 32.2 km/h 80% 0 mm
22:05 7.8 °C 4.6 °C 1007.3 hPa WSW 16.1 km/h 32.2 km/h 80% 0 mm
22:10 7.9 °C 4.7 °C 1007.3 hPa WSW 16.1 km/h 29 km/h 80% 0 mm
22:15 7.9 °C 4.7 °C 1007.3 hPa WSW 16.1 km/h 35.4 km/h 80% 0 mm
22:20 7.9 °C 4.7 °C 1007.7 hPa SW 20.9 km/h 30.6 km/h 80% 0 mm
22:25 7.9 °C 4.7 °C 1007.3 hPa South 16.1 km/h 40.2 km/h 80% 0 mm
22:30 8 °C 4.8 °C 1007.7 hPa WSW 19.3 km/h 27.4 km/h 80% 0 mm
22:35 7.9 °C 4.7 °C 1007.7 hPa WSW 16.1 km/h 37 km/h 80% 0 mm
22:40 8 °C 4.8 °C 1007.7 hPa SSE 17.7 km/h 38.6 km/h 80% 0 mm
22:45 8 °C 4.8 °C 1007.7 hPa WSW 11.3 km/h 40.2 km/h 80% 0 mm
22:50 7.9 °C 4.7 °C 1007.7 hPa WSW 16.1 km/h 40.2 km/h 80% 0 mm
22:55 7.8 °C 4.6 °C 1007.7 hPa WSW 14.5 km/h 29 km/h 80% 0 mm
23:00 7.8 °C 4.8 °C 1007.7 hPa WSW 16.1 km/h 29 km/h 81% 0 mm
23:05 7.8 °C 4.7 °C 1007.7 hPa WSW 19.3 km/h 33.8 km/h 81% 0 mm
23:10 7.8 °C 4.7 °C 1007.7 hPa WSW 24.1 km/h 27.4 km/h 81% 0 mm
23:15 7.7 °C 4.7 °C 1007.7 hPa SSW 9.7 km/h 33.8 km/h 81% 0 mm
23:20 7.7 °C 4.6 °C 1007.7 hPa WSW 16.1 km/h 33.8 km/h 81% 0 mm
23:25 7.7 °C 4.8 °C 1008 hPa WSW 14.5 km/h 27.4 km/h 82% 0 mm
23:30 7.8 °C 4.9 °C 1008 hPa WSW 14.5 km/h 25.7 km/h 82% 0 mm
23:35 7.8 °C 4.9 °C 1008 hPa WSW 12.9 km/h 25.7 km/h 82% 0 mm
23:40 7.8 °C 4.9 °C 1007.7 hPa WSW 14.5 km/h 30.6 km/h 82% 0 mm
23:45 7.8 °C 4.8 °C 1007.7 hPa SW 17.7 km/h 35.4 km/h 81% 0 mm
23:50 7.8 °C 4.8 °C 1007.7 hPa West 11.3 km/h 30.6 km/h 81% 0 mm
23:55 7.8 °C 4.7 °C 1007.7 hPa West 8 km/h 29 km/h 81% 0 mm
Buffalo, New York, USA
Compliments of Weather Underground - 2.5 mb